Regional Weather Roundup
Issued by NWS Green Bay, WI

Home | Current Version | Previous Version | Text Only | Print | Product List | Glossary On
Versions: 1 2 3 4 5 6 7 8 9 10 11 12 13 14 15 16 17 18 19 20 21 22 23 24 25 26 27 28 29 30 31 32 33 34 35 36 37 38 39 40 41 42 43 44 45 46 47 48 49 50
000
ASUS43 KGRB 281210
RWRGRB

NORTH-CENTRAL AND NORTHEAST WISCONSIN REGIONAL WEATHER ROUNDUP
NATIONAL WEATHER SERVICE GREEN BAY WI
600 AM CST WED JAN 28 2015

WIZ005-009-010>012-018-019-281300-
NORTH CENTRAL WISCONSIN

CITY           SKY/WX    TMP DP  RH WIND       PRES   REMARKS
IRONWOOD       CLOUDY    25  21  86 SE5       30.04F
MANITOWISH WTR CLOUDY    22  22 100 S7        30.07F FOG
ARBOR VITAE    CLOUDY    24  22  93 S6        30.08F FOG
EAGLE RIVER    CLOUDY    22  20  91 S5        30.09F FOG
LAND O LAKES   CLOUDY    23  22  97 S6        30.09F FOG
RHINELANDER    CLOUDY    22  20  92 S7        30.10F FOG
PHILLIPS       CLOUDY    22  22  96 SE7       30.08S FOG
ANTIGO         CLOUDY    21  18  90 SE9       30.14S
TOMAHAWK       CLOUDY    23  21  94 S6        30.11F FOG
MERRILL        CLOUDY    24  20  88 SE5       30.12F
$$

WIZ013-073-281300-
NORTHEAST WISCONSIN

CITY           SKY/WX    TMP DP  RH WIND       PRES   REMARKS
IRON MOUNTAIN  CLOUDY    21  16  81 S9        30.16S
MARINETTE      CLOUDY    19  16  86 SW3       30.23R
OCONTO         MOCLDY    11   9  92 MISG      30.23S
$$

WIZ017-030-035>037-045-281300-
CENTRAL WISCONSIN

CITY           SKY/WX    TMP DP  RH WIND       PRES   REMARKS
MEDFORD        CLOUDY    21  21 100 SE7       30.10S FOG
WAUSAU         CLOUDY    24  19  81 S10       30.13F
MOSINEE        CLOUDY    25  21  86 S8        30.15F
MARSHFIELD     CLOUDY    25  22  88 S13       30.13S FOG
WISC RAPIDS    CLOUDY    25  21  85 SE8       30.17S
STEVENS POINT  CLOUDY    23  19  85 S6        30.16S
WAUPACA        CLOUDY    26  20  77 SE7       30.20F
SHAWANO        CLOUDY    25  19  76 S5        30.21S
CLINTONVILLE   CLOUDY    23  19  86 S7        30.20F
$$

WIZ038-039-048-051-281300-
FOX VALLEY

CITY           SKY/WX    TMP DP  RH WIND       PRES   REMARKS
NWS GREEN BAY  PTCLDY    18  14  84 S3        30.23S
APPLETON       MOCLDY    21  16  79 S7        30.22R
OSHKOSH        CLOUDY    22  16  78 S6        30.22R
FOND DU LAC    CLOUDY    22  16  78 S5        30.23R
$$

WIZ022-050-052-281300-
EAST CENTRAL WISCONSIN

CITY           SKY/WX    TMP DP  RH WIND       PRES   REMARKS
STURGEON BAY   MOCLDY    18  12  79 S3        30.25R
MANITOWOC      PTCLDY    14  11  87 CALM      30.25S
SHEBOYGAN      PTCLDY    18  14  84 CALM      30.24S
$$

LMZ563-521-522-541>543-281300-
LAKESHORE

STATION/POSITION TIME  TEMP    WIND        PRES    VSBY  WAVE
                       AIR SEA DIR/SP/G                  HT/PER
                 (UTC) (F)     (DEG/KT/KT) (MB)    (MI)  (FT/S)
SHEBOYGAN LKSHOR 1200   28     160/ 10/ 11 1025.3R
KEWAUNEE LKSHORE 1200   20     280/  1/  3 1023.3F
NORTHPORT PIER   1200   19     200/  1/  4 1024.0R
SISTER BAY LKSHO 1200   18     160/  5/  8   N/A
CHAMBERS ISLAND  1200   21     180/  4/  6 1024.4R
MENOMINEE LKSHOR 1200   18     190/  4     1024.7R
$$


USA.gov is the U.S. government's official web portal to all federal, state and local government web resources and services.